This is the latest recevied weather packets stored in our database for station/object CE4JVU-10. If no packets are shown the sender has not sent any weather packets the latest 10 day(s).
| Time | Temp. | Humidity | Pressure | Rain* | Wind** | Luminosity | Snow |
|---|---|---|---|---|---|---|---|
| 1787671296 | 16.11° C | 62% | 979.8 hPa | - | - | - | - |
| 1787670396 | 16.11° C | 64% | 980.7 hPa | - | - | - | - |
| 1787669496 | 16.11° C | 64% | 981.3 hPa | - | - | - | - |
| 1787668596 | 16.67° C | 62% | 981.6 hPa | - | - | - | - |
| 1787667696 | 17.22° C | 61% | 981.8 hPa | - | - | - | - |
| 1787666796 | 17.22° C | 59% | 981.6 hPa | - | - | - | - |
| 1787665896 | 16.67° C | 61% | 981.7 hPa | - | - | - | - |
| 1787664996 | 16.67° C | 61% | 981.2 hPa | - | - | - | - |
| 1787664096 | 16.67° C | 64% | 980.3 hPa | - | - | - | - |
| 1787663196 | 17.78° C | 69% | 980.4 hPa | - | - | - | - |
| 1787662296 | 18.33° C | 67% | 980.3 hPa | - | - | - | - |
| 1787661396 | 18.33° C | 66% | 980.2 hPa | - | - | - | - |
| 1787660496 | 18.33° C | 68% | 980.3 hPa | - | - | - | - |
| 1787659596 | 18.33° C | 70% | 980.5 hPa | - | - | - | - |
| 1787658696 | 17.78° C | 74% | 980.5 hPa | - | - | - | - |
| 1787657795 | 17.78° C | 69% | 980.9 hPa | - | - | - | - |
| 1787656895 | 17.78° C | 68% | 980.4 hPa | - | - | - | - |
| 1787655995 | 17.78° C | 67% | 980.9 hPa | - | - | - | - |
| 1787655095 | 18.33° C | 67% | 981.5 hPa | - | - | - | - |
| 1787654195 | 18.33° C | 67% | 981.6 hPa | - | - | - | - |
| 1787653295 | 18.33° C | 67% | 981.8 hPa | - | - | - | - |
| 1787652395 | 18.33° C | 66% | 982.2 hPa | - | - | - | - |
| 1787651495 | 18.33° C | 66% | 981.9 hPa | - | - | - | - |
| 1787650595 | 17.78° C | 66% | 981.3 hPa | - | - | - | - |
| 1787649695 | 17.78° C | 67% | 981.3 hPa | - | - | - | - |
* Rain since midnight (hover to see other rain measurements)
** Current wind speed in m/s (hover to see current wind gust speed)